Weather History for KIRK - October, 2013

Change the Weather History Date:

Monday, October 14, 2013

  Actual Average Record
Temperature  
Mean Temperature 56 °F 54 °F  
Max Temperature 69 °F 65 °F 89 °F (1938)
Min Temperature 42 °F 43 °F 24 °F (1937)
Degree Days  
Heating Degree Days 9 11  
Month to date heating degree days 80 135  
Since 1 July heating degree days 150 242  
Cooling Degree Days 0 0  
Month to date cooling degree days 32 10  
Year to date cooling degree days 1028 937  
Growing Degree Days 5 (Base 50)    
Moisture  
Dew Point 38 °F    
Average Humidity 53    
Maximum Humidity 70    
Minimum Humidity 35    
Precipitation  
Precipitation 0.00 in 0.11 in 2.01 in (1981)
Month to date precipitation 0.51 1.53  
Year to date precipitation 32.09 33.05  
Sea Level Pressure  
Sea Level Pressure 30.20 in    
Wind  
Wind Speed 13 mph (ESE)    
Max Wind Speed 22 mph    
Max Gust Speed 29 mph    
Visibility 10 miles    
Events      
T = Trace of Precipitation, MM = Missing Value Source: NWS Daily Summary

Daily Weather History Graph

Daily Weather History Graph

Search for Another Location

Airport or City:

Trip Planner

Search our weather history database for the weather conditions in past years. The results will help you decide how hot, cold, wet, or windy it might be!

Date:

Astronomy

Oct. 14, 2013 Rise Set
Actual Time 7:19 AM CDT 6:31 PM CDT
Civil Twilight 6:52 AM CDT 6:58 PM CDT
Nautical Twilight 6:21 AM CDT 7:30 PM CDT
Astronomical Twilight 5:49 AM CDT 8:01 PM CDT
Moon 4:01 PM CDT (10/14) 2:36 AM CDT (10/14)
Length of Visible Light 12h 06m
Length of Day
11h 11m
Waxing Gibbous, 79% of the Moon is Illuminated
Oct 14
Waxing Gibbous
Oct 18
Full
Oct 26
Last Quarter
Nov 3
New
Nov 9
First Quarter

Hourly Weather History & Observations

Time (CDT) Temp. Windchill Dew Point Humidity Pressure Visibility Wind Dir Wind Speed Gust Speed Precip Events Conditions
12:55 AM 43.0 °F 40.3 °F 33.1 °F 68% 30.37 in 10.0 mi ENE 4.6 mph - N/A   Clear
1:55 AM 45.0 °F 41.8 °F 32.0 °F 60% 30.37 in 10.0 mi ENE 5.8 mph - N/A   Clear
2:55 AM 45.0 °F 41.2 °F 32.0 °F 60% 30.35 in 10.0 mi East 6.9 mph - N/A   Clear
3:55 AM 44.1 °F 40.8 °F 32.0 °F 63% 30.35 in 10.0 mi East 5.8 mph - N/A   Clear
4:55 AM 43.0 °F 39.5 °F 32.0 °F 65% 30.35 in 10.0 mi East 5.8 mph - N/A   Clear
5:55 AM 42.1 °F 39.2 °F 33.1 °F 70% 30.34 in 10.0 mi East 4.6 mph - N/A   Clear
6:55 AM 42.1 °F 37.7 °F 33.1 °F 70% 30.33 in 10.0 mi East 6.9 mph - N/A   Clear
7:55 AM 44.1 °F 40.1 °F 35.1 °F 71% 30.33 in 10.0 mi East 6.9 mph - N/A   Clear
8:55 AM 50.0 °F - 37.0 °F 61% 30.32 in 10.0 mi ESE 12.7 mph - N/A   Clear
9:55 AM 54.0 °F - 37.9 °F 55% 30.31 in 10.0 mi ESE 15.0 mph - N/A   Clear
10:55 AM 59.0 °F - 37.9 °F 46% 30.29 in 10.0 mi ESE 12.7 mph - N/A   Clear
11:55 AM 60.1 °F - 37.0 °F 42% 30.27 in 10.0 mi ESE 15.0 mph 23.0 mph N/A   Clear
12:55 PM 64.0 °F - 39.0 °F 40% 30.22 in 10.0 mi SE 15.0 mph - N/A   Clear
1:55 PM 66.9 °F - 39.0 °F 36% 30.17 in 10.0 mi SE 17.3 mph 23.0 mph N/A   Clear
2:55 PM 66.9 °F - 39.0 °F 36% 30.14 in 10.0 mi SE 17.3 mph 24.2 mph N/A   Clear
3:55 PM 68.0 °F - 39.0 °F 35% 30.11 in 10.0 mi SE 17.3 mph - N/A   Clear
4:55 PM 66.0 °F - 39.0 °F 37% 30.09 in 10.0 mi SE 16.1 mph - N/A   Clear
5:55 PM 63.0 °F - 39.9 °F 43% 30.07 in 10.0 mi SE 11.5 mph - N/A   Clear
6:55 PM 62.1 °F - 39.9 °F 44% 30.05 in 10.0 mi SE 15.0 mph - N/A   Partly Cloudy
7:55 PM 62.1 °F - 39.9 °F 44% 30.04 in 10.0 mi SE 15.0 mph - N/A   Mostly Cloudy
8:55 PM 60.1 °F - 42.1 °F 51% 30.03 in 10.0 mi SE 15.0 mph - N/A   Partly Cloudy
9:55 PM 57.9 °F - 44.1 °F 60% 30.02 in 10.0 mi SE 13.8 mph - N/A   Clear
10:55 PM 59.0 °F - 46.9 °F 64% 30.00 in 10.0 mi SSE 15.0 mph - N/A   Mostly Cloudy
11:55 PM 59.0 °F - 48.9 °F 69% 29.99 in 10.0 mi SSE 18.4 mph 23.0 mph N/A   Mostly Cloudy